FlightSource - Aviation Photo Database

World Wide Airport Lookup


Search by ICAO
Or
Search by City

FlightSource.ca - Aviation Photo Database - Doylestown Airport Information
Airport Identification
Name: Doylestown Airport
ICAO: KDYL
IATA:
Airport Location
City: Doylestown
Region: PA
Country: United States
Continent: North America
Latitude: 40.333
Longitude: -75.1223
Airport Information
Type: Small Airport
Elevation: 394 Feet ASL
Flight Status: KDYL
More Info: KDYL
Airport Weather    
Metar: KDYL 230254Z AUTO 34006KT 10SM CLR 01/M06 A3009 RMK AO2 SLP195 T00111056 51011
TAF:


Advertisement